This demonstration page uses our WeatherBlox Daily Observations layout. Learn more.

41.55636, -103.73856

Hourly Observations for January 1, 2016

Temp ( °F °C ) Dew Point ( °F °C ) Humidity (%) Winds ( mph kmh ) Pressure ( in mb ) Visibility ( mi km ) Precip ( " mm )
12:53 am 00:53 Clear 3 -16 0 -18 85 85 NNW 8 13 30.8 1043 10 16.09344 0 0
1:53 am 01:53 Clear 3 -16 -2 -19 78 78 NNW 9 15 30.8 1043 10 16.09344 0 0
2:53 am 02:53 Clear 1 -17 -4 -20 78 78 NW 8 13 30.77 1042 10 16.09344 0 0
3:53 am 03:53 Clear 3 -16 -2 -19 78 78 NW 9 15 30.77 1042 10 16.09344 0 0
4:53 am 04:53 Clear 3 -16 -2 -19 78 78 NNW 6 9 30.77 1042 10 16.09344 0 0
5:53 am 05:53 Clear 1 -17 -4 -20 78 78 NW 10 17 30.77 1042 10 16.09344 0 0
6:53 am 06:53 Clear 3 -16 -2 -19 78 78 NNW 7 11 30.77 1042 10 16.09344 0 0
7:53 am 07:53 Sunny 7 -14 0 -18 72 72 NW 8 13 30.74 1041 10 16.09344 0 0
8:53 am 08:53 Sunny 10 -12 0 -18 61 61 NW 8 13 30.68 1039 10 16.09344 0 0
9:53 am 09:53 Sunny 16 -9 3 -16 57 57 WNW 13 20 30.65 1038 10 16.09344 0 0
10:53 am 10:53 Sunny 18 -8 5 -15 58 58 NW 14 22 30.62 1037 10 16.09344 0 0
11:53 am 11:53 Sunny 21 -6 7 -14 54 54 NW 10 17 30.56 1035 10 16.09344 0 0
12:53 pm 12:53 Sunny 27 -3 10 -12 50 50 W 8 13 30.48 1032 10 16.09344 0 0
1:53 pm 13:53 Sunny 28 -2 12 -11 51 51 W 8 13 30.45 1031 10 16.09344 0 0
2:53 pm 14:53 Sunny 30 -1 16 -9 55 55 WNW 8 13 30.45 1031 10 16.09344 0 0
3:53 pm 15:53 Sunny 30 -1 14 -10 51 51 W 5 7 30.45 1031 10 16.09344 0 0
4:53 pm 16:53 Clear 19 -7 9 -13 63 63 NW 8 13 30.59 1036 10 16.09344 0 0
5:53 pm 17:53 Clear 21 -6 9 -13 58 58 NW 8 13 30.5 1033 10 16.09344 0 0
6:53 pm 18:53 Clear 18 -8 9 -13 68 68 NW 9 15 30.56 1035 10 16.09344 0 0
7:53 pm 19:53 Clear 16 -9 7 -14 67 67 WNW 8 13 30.56 1035 10 16.09344 0 0
8:53 pm 20:53 Clear 16 -9 7 -14 67 67 WNW 13 20 30.56 1035 10 16.09344 0 0
9:53 pm 21:53 Clear 12 -11 3 -16 67 67 WNW 9 15 30.59 1036 10 16.09344 0 0
10:53 pm 22:53 Clear 14 -10 3 -16 62 62 NNW 8 13 30.59 1036 10 16.09344 0 0
11:53 pm 23:53 Clear 12 -11 3 -16 67 67 NW 10 17 30.59 1036 10 16.09344 0 0

Powered by AerisWeather